User: anonymous   Login
Location: Unspecified
(0.0000°N, 0.0000°E)
Time: 18:59:20
(UTC+00:00)
Language:

DNEPR OBJECT AC - Orbit

View from above orbital plane
View from above orbital plane
View from above satellite
View from above satellite

Ground track
Ground track

The orbit data is extracted from the following two-line orbital elements,

1 39442U 13066AC  17084.75022050 +.00000500 +00000-0 +56837-4 0  9997
2 39442 097.6584 148.6998 0033304 137.7566 222.6226 14.90080631179647
Epoch (UTC): 25 March 2017 18:00:19
Eccentricity: 0.0033304
inclination: 97.6584°
perigee height: 574 km
apogee height: 621 km
right ascension of ascending node: 148.6998°
argument of perigee: 137.7566°
revolutions per day: 14.90080631
mean anomaly at epoch: 222.6226°
orbit number at epoch: 17964

The dashed part of the orbit path shows where the satellite is in the earth's shadow,  

DLR